User: anonymous   Login
Location: Unspecified
(0.0000°N, 0.0000°E)
Time: 07:22:19
(UTC+01:00)
Language:

Cosmos 1072 Rocket - Orbit

View from above orbital plane
View from above orbital plane
View from above satellite
View from above satellite

Ground track
Ground track

The orbit data is extracted from the following two-line orbital elements,

1 11239U 79003B   17080.75957145 +.00000019 +00000-0 +40067-5 0  9996
2 11239 082.9398 153.4716 0039294 277.1745 202.2430 13.75810905915573
Epoch (UTC): 21 March 2017 18:13:46
Eccentricity: 0.0039294
inclination: 82.9398°
perigee height: 950 km
apogee height: 1007 km
right ascension of ascending node: 153.4716°
argument of perigee: 277.1745°
revolutions per day: 13.75810905
mean anomaly at epoch: 202.2430°
orbit number at epoch: 91557

The dashed part of the orbit path shows where the satellite is in the earth's shadow,  

DLR